Hourly Data Report for July 04, 2016

OTTAWA INTL A
ONTARIO

45°19'00.000" N
75°40'00.000" W
114.90 m
6106001
71628
YOW

Download Data

Hourly Data (July 2016)
Hourly Data Report for July 4, 2016
TIME
LST
Temp Definition
°C
Dew Point Definition
°C
Rel Hum Definition
%
Precip. Amount Definition
mm

Wind Dir Definition
10's deg

Wind Spd Definition
km/h
Visibility Definition
km
Stn Press Definition
kPa
Hmdx Definition


Wind Chill Definition


Weather Definition


00:00 16.5 10.4 67   23 10 24.1 100.14     LegendNANA
01:00 15.3 10.3 72   24 10 24.1 100.11     Mainly Clear
02:00 15.2 10.7 74   22 10 24.1 100.10     LegendNANA
03:00 14.8 10.7 76   22 12 24.1 100.09     LegendNANA
04:00 13.7 10.4 80   24 8 24.1 100.10     Mainly Clear
05:00 13.8 10.8 82   23 13 24.1 100.14     LegendNANA
06:00 16.2 11.6 74   23 9 24.1 100.17     LegendNANA
07:00 18.8 12.4 66   24 10 24.1 100.21     Clear
08:00 21.5 12.2 55   27 12 24.1 100.21     LegendNANA
09:00 22.9 13.3 54   22 9 24.1 100.17 26   LegendNANA
10:00 24.6 13.7 50   21 13 24.1 100.15 28   Mainly Clear
11:00 25.5 13.9 48   23 12 24.1 100.13 29   LegendNANA
12:00 27.3 14.9 46   23 13 24.1 100.05 31   LegendNANA
13:00 28.1 13.1 39   24 15 24.1 99.98 31   Mainly Clear
14:00 28.9 13.0 37   19 18 24.1 99.90 32   LegendNANA
15:00 29.3 12.5 35   21 18 24.1 99.83 32   LegendNANA
16:00 29.9 11.7 32   23 22 24.1 99.76 32   Mainly Clear
17:00 28.8 12.1 35   20 27 24.1 99.71 31   LegendNANA
18:00 27.5 12.6 39   20 22 24.1 99.68 30   LegendNANA
19:00 25.5 11.1 40   20 23 24.1 99.68 27   Mainly Clear
20:00 23.0 10.9 46   18 12 24.1 99.64 25   LegendNANA
21:00 20.7 10.6 52   19 8 24.1 99.65     LegendNANA
22:00 20.0 9.7 51   19 8 24.1 99.63     Mainly Clear
23:00 18.2 9.1 55   20 7 24.1 99.61     LegendNANA

Notes on Data Quality.

Legend

  • E = Estimated
  • M = Missing
  • NA = Not Available*
  • [empty] = Indicates an unobserved value
Date modified: